Terug naar catalogus

QIANFAN-176

ActiefCommunicatiePO
NORAD 69393·PAYLOAD·🇨🇳 China

Gelanceerd Jun 4, 2026 vanaf Taiyuan Satellite Launch Center

Loading…

Volgende Passages (komende 24 uur)

TLE

VersSource: Space-Track

Epoch: Sep 14, 2026, 21:04 UTC

1 69393U 26124M   26257.87800347  .00000130  00000-0  18260-3 0  9998
2 69393  89.0057 352.5377 0001848 101.1743 258.9616 13.51020357 14167

Volg QIANFAN-176 in realtime met AllMySat

Download on the App Store